Defiance, OH

6:50 AM EST on November 13, 2019 (GMT -0500)
Defiance Memorial

Weather History for KDFI - September, 2019

Change the Weather History Date:

Saturday, September 7, 2019

  Actual Average Record
Temperature  
Mean Temperature 68 °F -  
Max Temperature 75 °F 79 °F 99 °F (1939)
Min Temperature 61 °F 54 °F 41 °F (1962)
Cooling Degree Days 3    
Growing Degree Days 18 (Base 50)    
Moisture  
Dew Point 58 °F    
Average Humidity 76    
Maximum Humidity 93    
Minimum Humidity 51    
Precipitation  
Precipitation 0.00 in - - ()
Sea Level Pressure  
Sea Level Pressure 30.00 in    
Wind  
Wind Speed 5 mph (NW)    
Max Wind Speed 13 mph    
Max Gust Speed -    
Visibility 9 miles    
Events      
Averages and records for this station are not official NWS values.
T = Trace of Precipitation, MM = Missing Value Source: NWS Daily Summary

Daily Weather History Graph

Daily Weather History Graph

Search for Another Location

Airport or City:

Astronomy

Sep. 07, 2019 Rise Set
Actual Time 7:09 AM EDT 8:00 PM EDT
Civil Twilight 6:41 AM EDT 8:28 PM EDT
Nautical Twilight 6:08 AM EDT 9:02 PM EDT
Astronomical Twilight 5:33 AM EDT 9:36 PM EDT
Moon 4:19 PM EDT (9/7) 12:58 AM EDT (9/7)
Length of Visible Light 13h 47m
Length of Day
12h 51m
Waxing Gibbous, 65% of the Moon is Illuminated
Sep 7
Waxing Gibbous
Sep 14
Full
Sep 21
Last Quarter
Sep 28
New
Oct 5
First Quarter

Hourly Weather History & Observations

Time (EDT) Temp. Dew Point Humidity Pressure Visibility Wind Dir Wind Speed Gust Speed Precip Events Conditions
12:53 AM 66.0 °F 63.0 °F 90% 29.94 in 8.0 mi NNW 5.8 mph - N/A   Overcast
1:01 AM 66.0 °F 63.0 °F 90% 29.95 in 8.0 mi NNW 3.5 mph - N/A   Overcast
1:24 AM 66.0 °F 63.0 °F 90% 29.95 in 7.0 mi NNW 4.6 mph - N/A   Overcast
1:45 AM 64.9 °F 62.1 °F 90% 29.95 in 8.0 mi NNW 6.9 mph - N/A   Overcast
2:53 AM 62.1 °F 60.1 °F 93% 29.95 in 7.0 mi NW 4.6 mph - N/A   Partly Cloudy
3:53 AM 63.0 °F 61.0 °F 93% 29.96 in 5.0 mi NW 3.5 mph - N/A   Overcast
4:53 AM 63.0 °F 60.1 °F 90% 29.96 in 8.0 mi NNW 4.6 mph - N/A   Overcast
5:01 AM 63.0 °F 60.1 °F 90% 29.96 in 9.0 mi NW 5.8 mph - N/A   Overcast
5:24 AM 63.0 °F 60.1 °F 90% 29.97 in 8.0 mi NW 6.9 mph - N/A   Partly Cloudy
5:53 AM 62.1 °F 59.0 °F 90% 29.98 in 7.0 mi WNW 4.6 mph - N/A   Partly Cloudy
6:53 AM 61.0 °F 57.9 °F 90% 30.00 in 10.0 mi NW 6.9 mph - N/A   Mostly Cloudy
7:03 AM 61.0 °F 57.9 °F 90% 30.00 in 10.0 mi NNW 4.6 mph - N/A   Mostly Cloudy
7:37 AM 62.1 °F 57.9 °F 86% 30.01 in 10.0 mi Calm Calm - N/A   Overcast
7:53 AM 62.1 °F 57.9 °F 86% 30.01 in 10.0 mi WNW 4.6 mph - N/A   Overcast
8:31 AM 62.1 °F 57.9 °F 86% 30.02 in 10.0 mi NW 8.1 mph - N/A   Overcast
8:53 AM 61.0 °F 55.9 °F 83% 30.03 in 10.0 mi NW 12.7 mph - N/A   Overcast
9:27 AM 62.1 °F 55.9 °F 80% 30.04 in 10.0 mi NW 6.9 mph - N/A   Overcast
9:53 AM 64.0 °F 55.9 °F 75% 30.04 in 10.0 mi North - - N/A   Scattered Clouds
10:23 AM 64.9 °F 55.9 °F 73% 30.04 in 10.0 mi NW 9.2 mph - N/A   Mostly Cloudy
10:53 AM 64.9 °F 55.9 °F 73% 30.04 in 10.0 mi NW 9.2 mph - N/A   Mostly Cloudy
11:30 AM 68.0 °F 55.9 °F 65% 30.04 in 10.0 mi WNW 6.9 mph - N/A   Scattered Clouds
11:37 AM 66.9 °F 55.9 °F 68% 30.04 in 10.0 mi NW 10.4 mph - N/A   Mostly Cloudy
11:53 AM 69.1 °F 55.9 °F 63% 30.04 in 10.0 mi NNW 5.8 mph - N/A   Mostly Cloudy
12:13 PM 69.1 °F 55.9 °F 63% 30.04 in 10.0 mi Variable 3.5 mph - N/A   Scattered Clouds
12:42 PM 69.1 °F 55.9 °F 63% 30.03 in 10.0 mi West 4.6 mph - N/A   Mostly Cloudy
12:49 PM 69.8 °F 55.4 °F 60% 30.02 in 10.0 mi Variable 3.5 mph - N/A   Partly Cloudy
12:53 PM 70.0 °F 57.0 °F 63% 30.02 in 10.0 mi Variable 6.9 mph - N/A   Scattered Clouds
1:53 PM 71.1 °F 57.0 °F 61% 30.01 in 10.0 mi WNW 5.8 mph - N/A   Partly Cloudy
2:53 PM 73.0 °F 55.9 °F 55% 30.00 in 10.0 mi North - - N/A   Scattered Clouds
3:53 PM 73.9 °F 57.0 °F 55% 29.99 in 10.0 mi Calm Calm - N/A   Clear
4:53 PM 75.0 °F 55.9 °F 51% 29.99 in 10.0 mi Variable 3.5 mph - N/A   Clear
5:53 PM 75.0 °F 55.9 °F 51% 29.99 in 10.0 mi West 4.6 mph - N/A   Clear
6:53 PM 73.0 °F 57.0 °F 57% 30.00 in 10.0 mi West 4.6 mph - N/A   Partly Cloudy
7:53 PM 70.0 °F 59.0 °F 68% 30.00 in 10.0 mi Calm Calm - N/A   Clear
8:53 PM 68.0 °F 59.0 °F 73% 30.01 in 10.0 mi Calm Calm - N/A   Scattered Clouds
9:53 PM 66.9 °F 60.1 °F 79% 30.02 in 10.0 mi Calm Calm - N/A   Partly Cloudy
11:53 PM 64.9 °F 60.1 °F 84% 30.02 in 10.0 mi Calm Calm - N/A   Clear